Wind_Speed
50 51 47 47 51 52 53 57 67 70 74 77 71 62 62 61 61 59 57 62 63 61 57 55 56 53 52 53 53 51 46 51 52 52 51 48 47 49 49 46 42 39 41 41 40
51 53 50 53 52 52 53 54 58 63 73 77 81 74 65 67 61 66 64 61 58 61 54 54 58 57 55 56 54 50 49 55 56 55 52 52 49 54 54 51 46 45 47 43 41
53 55 55 56 55 57 53 49 49 54 61 70 80 79 75 73 71 66 63 69 67 66 66 65 60 57 60 61 64 59 54 60 58 56 56 59 60 58 56 53 55 50 47 47 46
53 57 61 61 60 61 58 55 51 49 55 61 68 73 80 76 75 75 72 68 70 68 72 67 65 67 66 60 60 57 60 62 62 63 65 65 64 61 59 59 57 52 49 52 50
55 59 64 67 64 63 63 62 58 53 51 59 63 65 71 77 80 77 78 79 73 72 67 70 70 68 67 65 63 60 63 64 65 65 66 66 62 59 61 63 57 55 53 56 55
59 62 64 68 71 68 68 66 64 59 56 54 61 64 66 72 75 80 81 79 84 79 78 74 70 76 73 71 68 69 68 69 69 72 68 68 67 62 71 67 60 57 59 59 60
60 64 67 69 72 74 71 70 69 66 64 60 58 60 67 74 72 75 82 82 83 83 85 80 78 73 75 79 78 74 71 72 75 78 75 73 66 64 75 66 62 62 64 64 66
63 65 67 70 71 74 75 73 73 70 68 68 62 60 63 66 69 70 73 80 85 89 84 88 83 78 79 80 79 84 78 77 79 74 71 70 66 72 71 70 69 66 67 67 67
65 66 68 70 71 73 73 76 73 72 71 71 70 68 68 70 67 66 68 73 78 83 86 88 86 85 82 84 84 81 83 85 84 81 78 75 72 77 74 71 72 71 72 71 70
68 67 67 70 72 74 76 78 77 75 75 74 73 74 69 73 70 70 69 69 76 76 85 84 83 87 89 89 87 88 82 84 85 82 80 79 77 82 80 76 78 76 74 75 74
68 69 70 69 71 74 75 77 81 81 78 78 78 79 76 73 77 73 71 71 71 75 78 88 90 84 96 95 91 92 90 90 93 93 89 85 79 83 86 77 83 79 74 77 78
71 72 72 76 74 76 76 79 80 79 80 82 80 81 80 75 74 75 77 77 72 73 73 76 83 95 93 94 97 96 94 91 95 92 87 87 80 86 86 83 81 78 79 81 78
78 79 79 80 80 80 82 84 87 87 82 84 85 82 81 82 78 79 78 76 73 72 74 72 73 86 96 94 93 95 99 102 99 96 91 89 80 89 89 82 85 84 86 83 84
85 86 86 88 86 88 91 90 92 93 91 85 89 83 82 83 86 82 82 78 73 73 75 72 72 73 83 91 97 99 98 98 102 103 97 96 88 91 94 90 90 92 89 86 86
87 90 91 93 95 95 98 97 99 100 101 87 82 85 88 87 85 84 87 83 76 76 80 74 72 73 73 78 86 92 98 102 103 102 97 94 96 86 98 98 96 98 95 91 89
95 96 97 99 99 102 103 104 105 109 99 91 87 88 88 91 93 94 89 92 88 81 81 82 79 76 73 75 78 79 85 92 94 102 102 94 100 79 89 95 97 97 95 95 95
101 101 101 104 107 106 107 110 112 108 96 94 94 92 98 96 96 96 97 93 92 89 82 85 83 81 77 75 75 74 78 81 82 85 84 87 98 87 89 97 99 97 95 95 96
107 106 107 109 114 116 115 119 120 97 95 96 99 102 103 102 100 101 102 99 98 93 89 90 86 86 83 79 77 77 75 75 77 78 76 78 74 69 81 90 91 96 96 94 92
103 109 112 117 120 121 125 127 112 102 102 105 106 106 104 108 108 105 103 98 99 101 100 96 93 90 89 88 85 77 74 78 79 74 75 72 67 67 70 75 82 86 87 88 88
95 100 104 110 114 123 127 122 113 112 114 116 116 115 112 108 115 111 109 105 103 106 106 105 101 97 94 93 91 86 83 83 82 78 75 66 64 62 68 69 71 75 79 81 82
92 91 93 95 103 116 120 113 113 115 122 123 122 124 120 119 116 117 115 110 109 108 112 109 108 102 101 99 96 97 91 89 87 83 77 70 63 62 63 66 68 70 72 76 79
96 97 100 103 104 111 109 106 102 108 120 122 123 125 127 126 125 123 120 114 114 114 115 115 113 107 103 104 103 102 98 95 89 85 84 79 63 67 67 67 67 70 73 74 77
84 86 96 104 106 112 114 112 112 110 109 112 121 126 127 130 132 130 126 119 120 120 118 117 117 115 113 107 105 106 104 104 100 95 89 84 62 70 72 73 74 75 76 77 78
78 82 88 95 98 103 110 117 121 118 114 116 118 118 124 129 130 131 131 130 128 124 124 124 125 122 117 109 110 111 109 110 110 107 86 85 71 72 73 77 78 80 81 80 80
70 70 71 79 87 93 95 100 110 115 120 120 120 121 120 119 125 131 132 133 134 133 130 132 129 126 124 118 119 116 112 114 115 107 105 83 89 86 83 83 85 84 83 82 83
61 62 63 66 72 80 85 89 92 102 110 112 122 123 121 122 119 122 127 131 130 135 136 136 135 131 128 125 126 123 121 120 117 111 110 97 97 93 93 94 95 95 93 88 86
57 58 56 64 64 66 72 79 85 92 99 102 107 109 116 121 119 114 118 120 126 131 134 138 138 135 134 126 132 138 127 120 121 119 116 112 102 109 106 106 107 103 99 92 88
Wind_Direction
264 259 257 256 261 263 262 259 245 243 241 242 241 240 241 239 241 238 245 246 248 247 246 248 247 247 249 251 252 253 249 251 248 250 252 254 247 257 269 270 272 268 276 281 282
266 256 255 250 251 258 258 259 247 240 239 239 241 243 241 243 242 244 239 244 244 247 238 244 244 248 248 247 247 252 252 248 249 254 254 255 252 259 267 271 269 271 279 280 274
263 254 250 247 252 249 256 256 251 241 237 240 241 243 243 243 245 243 244 245 242 243 245 249 251 249 246 245 249 250 250 248 250 250 249 250 255 259 263 267 267 271 270 275 274
256 250 245 246 249 251 253 255 255 250 241 239 238 242 243 242 242 242 243 243 244 244 249 249 248 249 249 248 249 251 250 248 249 248 250 253 256 261 263 262 265 266 271 273 273
252 247 245 244 247 249 251 254 255 256 249 240 238 240 243 245 244 243 244 242 244 245 245 242 243 246 248 248 246 246 248 248 249 251 253 254 256 260 261 260 262 266 270 270 272
254 248 246 244 245 248 248 250 253 254 253 250 243 239 244 245 246 245 244 244 245 247 250 247 246 246 243 246 249 248 248 249 252 253 254 254 256 261 259 260 266 267 267 271 273
253 249 249 247 244 246 247 248 252 253 253 250 251 248 246 243 245 247 245 246 245 245 248 248 250 250 248 247 247 248 249 252 252 254 253 255 258 258 260 263 264 264 269 270 272
254 249 247 248 247 246 248 249 250 251 253 254 249 249 251 252 251 249 248 250 248 246 246 249 251 250 250 248 248 249 248 249 251 250 252 254 254 256 259 262 262 264 267 269 268
254 252 250 249 247 249 248 246 249 251 253 254 255 251 251 254 254 254 257 252 251 251 247 247 248 250 249 248 249 249 248 249 249 251 253 254 253 258 258 259 260 264 265 265 267
256 254 256 255 252 251 250 248 246 248 251 251 253 255 252 250 252 253 256 258 256 252 250 250 247 246 247 246 246 248 251 251 254 252 250 255 252 257 258 257 259 264 264 264 267
258 253 252 253 255 255 253 251 251 253 252 251 252 256 255 254 251 253 254 255 258 258 251 246 252 248 243 245 246 247 250 248 253 257 256 255 252 256 257 258 262 260 262 266 265
257 255 254 252 251 252 254 254 248 249 251 253 253 253 256 254 251 254 253 254 256 258 258 253 247 247 250 248 245 245 248 251 254 254 254 258 257 257 259 256 258 260 261 263 264
256 253 252 252 250 251 251 252 248 247 246 254 252 256 256 256 253 257 252 253 253 258 256 256 253 251 247 249 250 250 248 246 249 252 252 254 255 255 259 256 256 256 258 259 265
257 255 254 252 251 251 250 250 250 249 249 247 256 252 254 255 254 257 254 253 253 252 254 255 258 255 252 250 249 251 253 251 250 252 251 255 256 261 259 257 257 259 260 263 266
260 258 256 256 255 252 251 250 251 250 248 247 250 254 256 252 251 257 257 257 254 252 254 257 256 256 256 252 253 250 251 252 253 254 254 255 254 258 265 267 265 263 265 264 264
264 263 262 260 257 256 254 252 251 251 251 249 248 249 254 255 253 249 253 255 254 255 256 257 258 258 258 257 256 252 253 253 253 254 253 256 257 251 259 261 262 264 265 264 265
263 263 263 262 262 259 257 256 254 252 252 251 249 245 248 251 254 252 250 251 254 256 257 256 258 260 260 260 259 258 255 254 255 255 254 254 256 254 254 256 257 258 262 265 265
263 262 263 261 260 260 259 257 256 255 255 254 248 248 246 246 249 253 253 253 253 251 254 256 258 259 259 260 259 259 259 261 259 256 255 253 255 257 254 252 256 259 258 259 263
264 263 262 261 261 260 260 260 261 259 256 256 253 249 248 248 247 248 250 252 254 253 251 251 254 257 257 259 260 262 263 262 260 259 258 258 256 255 257 257 257 259 263 262 261
267 264 262 260 261 260 259 261 261 258 257 254 253 254 251 247 246 246 246 248 252 252 252 251 251 253 256 257 260 262 263 264 264 262 261 258 257 257 259 260 260 260 263 265 266
268 265 261 260 260 261 262 259 257 256 255 254 253 253 251 251 248 247 246 245 249 252 252 252 251 250 253 255 256 257 260 264 264 263 264 261 257 256 257 259 260 262 262 263 265
269 267 266 262 260 258 258 259 254 252 252 252 252 251 250 249 249 248 247 248 248 248 249 251 252 251 252 253 254 256 259 262 266 264 261 259 258 262 260 261 263 263 262 260 261
274 269 263 261 258 255 258 258 258 255 250 249 248 248 248 249 250 248 248 246 247 247 246 248 250 251 250 249 254 258 259 260 262 262 259 258 258 265 265 264 264 263 263 263 262
278 272 268 266 262 257 256 256 257 257 256 254 251 248 247 247 247 247 247 246 247 247 247 247 250 250 250 252 252 253 255 257 260 261 264 260 260 258 261 264 265 266 267 266 265
283 277 269 267 264 262 260 257 256 254 255 256 255 252 251 250 247 247 247 247 245 246 246 247 248 250 252 251 252 253 254 256 259 261 262 262 260 259 259 261 264 264 264 265 265
291 285 279 269 264 263 261 257 256 254 253 250 252 254 252 252 253 250 248 246 245 244 246 246 248 250 250 252 254 254 253 254 257 259 261 262 261 262 261 260 259 259 259 259 263
297 289 283 277 269 262 257 256 255 253 253 252 251 249 250 251 252 251 251 250 246 245 246 246 248 247 249 250 252 253 254 256 256 256 259 258 260 256 256 257 258 261 262 264 265
Height
10740 10740 10740 10739 10738 10736 10737 10738 10740 10745 10749 10754 10758 10760 10762 10764 10766 10767 10769 10773 10776 10779 10781 10781 10783 10786 10788 10790 10794 10796 10803 10797 10794 10798 10799 10805 10807 10805 10806 10807 10808 10806 10809 10812 10812
10727 10727 10726 10727 10728 10728 10728 10728 10727 10729 10734 10738 10743 10748 10751 10753 10755 10757 10761 10761 10765 10767 10769 10771 10771 10775 10779 10779 10784 10786 10792 10785 10785 10790 10792 10793 10798 10800 10800 10799 10797 10797 10801 10803 10802
10714 10713 10713 10713 10714 10715 10714 10714 10715 10715 10718 10722 10727 10732 10736 10739 10742 10745 10748 10750 10753 10755 10758 10760 10761 10763 10767 10769 10773 10778 10781 10774 10777 10779 10782 10784 10787 10792 10793 10791 10787 10791 10793 10794 10795
10698 10698 10698 10698 10699 10700 10700 10700 10702 10703 10704 10707 10711 10715 10720 10723 10727 10730 10734 10737 10740 10742 10744 10746 10749 10753 10755 10759 10761 10766 10765 10765 10767 10769 10773 10773 10778 10782 10783 10777 10780 10782 10785 10783 10783
10681 10682 10682 10684 10685 10686 10687 10688 10689 10690 10691 10693 10696 10699 10704 10707 10710 10715 10718 10722 10724 10728 10730 10732 10734 10739 10741 10744 10749 10752 10752 10755 10756 10758 10761 10764 10765 10770 10769 10765 10772 10776 10775 10773 10774
10667 10668 10670 10670 10671 10672 10673 10675 10676 10677 10679 10679 10681 10684 10690 10689 10695 10699 10702 10706 10710 10712 10715 10717 10721 10723 10727 10729 10735 10737 10739 10741 10744 10743 10750 10754 10755 10765 10744 10753 10764 10766 10763 10763 10764
10653 10653 10653 10654 10656 10658 10659 10661 10663 10664 10665 10666 10668 10672 10675 10672 10676 10679 10684 10688 10692 10696 10699 10701 10704 10708 10713 10714 10717 10721 10725 10729 10729 10730 10738 10739 10748 10747 10734 10746 10753 10751 10752 10753 10751
10637 10637 10638 10639 10641 10643 10643 10645 10647 10648 10650 10652 10656 10659 10660 10658 10661 10664 10666 10669 10673 10678 10682 10686 10687 10692 10696 10699 10701 10705 10709 10712 10709 10715 10720 10726 10736 10725 10728 10733 10736 10740 10739 10739 10739
10622 10623 10623 10624 10625 10627 10629 10631 10632 10633 10634 10636 10639 10644 10644 10643 10646 10648 10648 10652 10655 10658 10663 10668 10671 10676 10679 10680 10684 10686 10689 10694 10695 10699 10704 10711 10721 10707 10715 10719 10723 10726 10726 10726 10725
10607 10607 10608 10609 10610 10611 10613 10614 10616 10618 10620 10621 10622 10627 10629 10629 10630 10631 10632 10633 10636 10639 10642 10646 10653 10661 10662 10657 10666 10665 10678 10680 10677 10680 10688 10696 10705 10696 10700 10708 10708 10712 10712 10712 10712
10591 10591 10591 10591 10591 10592 10594 10597 10599 10602 10603 10604 10607 10609 10610 10610 10612 10613 10615 10617 10618 10621 10622 10628 10636 10646 10626 10637 10650 10653 10657 10659 10658 10660 10671 10677 10691 10681 10681 10697 10693 10694 10697 10699 10697
10573 10574 10574 10574 10573 10573 10574 10576 10578 10583 10588 10585 10589 10592 10591 10593 10597 10595 10598 10601 10603 10602 10605 10611 10620 10609 10616 10623 10629 10632 10637 10642 10633 10639 10653 10657 10675 10667 10665 10680 10679 10679 10681 10681 10682
10552 10553 10552 10552 10554 10554 10552 10553 10554 10557 10567 10564 10571 10576 10576 10575 10579 10578 10577 10582 10585 10587 10586 10592 10598 10594 10599 10601 10606 10610 10616 10618 10619 10621 10632 10641 10658 10649 10649 10661 10661 10662 10660 10665 10667
10529 10529 10529 10528 10531 10530 10525 10526 10528 10529 10537 10559 10546 10560 10559 10557 10562 10559 10556 10563 10567 10568 10567 10578 10579 10574 10575 10582 10582 10591 10591 10596 10598 10602 10617 10620 10645 10634 10628 10640 10644 10640 10641 10645 10647
10505 10505 10504 10503 10504 10502 10500 10503 10501 10499 10503 10532 10541 10536 10538 10540 10543 10539 10537 10542 10548 10546 10549 10561 10560 10557 10558 10560 10560 10572 10570 10574 10576 10580 10594 10609 10613 10639 10605 10616 10615 10616 10624 10625 10627
10477 10477 10476 10475 10474 10471 10470 10472 10471 10463 10491 10515 10523 10522 10516 10512 10516 10521 10516 10519 10524 10526 10532 10536 10539 10539 10541 10540 10541 10551 10552 10550 10555 10561 10574 10587 10579 10632 10604 10590 10586 10592 10602 10604 10607
10448 10447 10447 10442 10435 10441 10439 10434 10431 10446 10485 10490 10496 10494 10489 10489 10489 10493 10495 10499 10500 10505 10513 10509 10517 10521 10521 10522 10524 10528 10527 10527 10534 10543 10561 10561 10561 10604 10595 10573 10567 10571 10576 10581 10586
10418 10417 10414 10407 10402 10400 10398 10391 10393 10454 10459 10457 10460 10458 10458 10461 10464 10464 10467 10475 10481 10483 10485 10486 10496 10498 10504 10503 10502 10505 10512 10513 10518 10523 10532 10539 10559 10568 10566 10564 10551 10546 10555 10562 10563
10382 10382 10383 10373 10367 10362 10354 10350 10386 10427 10426 10419 10416 10418 10428 10433 10431 10436 10440 10451 10455 10458 10460 10463 10470 10474 10479 10481 10482 10493 10497 10492 10494 10505 10513 10528 10542 10543 10538 10539 10540 10537 10534 10538 10547
10348 10346 10346 10335 10327 10317 10312 10333 10362 10382 10376 10376 10372 10381 10392 10398 10395 10406 10414 10429 10427 10431 10429 10437 10446 10453 10456 10459 10464 10474 10474 10472 10475 10485 10493 10512 10520 10528 10518 10520 10522 10523 10521 10520 10521
10315 10315 10304 10296 10292 10281 10281 10303 10320 10331 10326 10329 10334 10340 10351 10359 10365 10371 10383 10399 10404 10408 10405 10410 10413 10432 10433 10442 10444 10444 10454 10453 10454 10465 10476 10491 10505 10502 10503 10502 10502 10505 10506 10503 10502
10281 10280 10266 10257 10261 10248 10251 10257 10274 10285 10285 10285 10289 10301 10308 10323 10325 10332 10350 10371 10373 10377 10374 10380 10380 10399 10410 10415 10415 10421 10432 10434 10437 10447 10449 10461 10491 10484 10484 10486 10486 10483 10484 10486 10485
10246 10244 10233 10225 10230 10219 10218 10225 10228 10238 10246 10243 10246 10258 10268 10280 10282 10300 10315 10340 10339 10341 10350 10358 10350 10360 10371 10386 10400 10406 10412 10409 10411 10413 10427 10440 10479 10466 10466 10464 10460 10461 10462 10463 10464
10212 10207 10197 10189 10189 10190 10188 10191 10189 10197 10206 10206 10211 10219 10229 10238 10248 10263 10276 10294 10301 10312 10320 10321 10319 10331 10347 10368 10365 10370 10383 10383 10381 10384 10423 10425 10452 10448 10444 10437 10439 10441 10439 10441 10443
10175 10170 10167 10159 10152 10149 10153 10161 10155 10165 10167 10173 10174 10179 10191 10202 10214 10223 10237 10251 10265 10279 10284 10282 10292 10306 10319 10335 10335 10344 10356 10357 10357 10378 10373 10423 10411 10417 10420 10420 10416 10416 10415 10419 10418
10146 10142 10135 10130 10125 10120 10121 10124 10128 10124 10126 10142 10135 10145 10158 10170 10180 10192 10195 10212 10231 10245 10249 10260 10263 10278 10291 10302 10305 10313 10322 10327 10340 10357 10354 10387 10386 10394 10392 10389 10384 10379 10386 10398 10403
10121 10114 10110 10096 10095 10094 10092 10093 10094 10091 10092 10100 10101 10118 10124 10131 10142 10158 10166 10183 10197 10210 10221 10226 10233 10251 10256 10284 10271 10253 10294 10317 10316 10321 10330 10335 10365 10346 10354 10349 10348 10362 10374 10385 10390